This is the latest recevied weather packets stored in our database for station/object OE6JUE. If no packets are shown the sender has not sent any weather packets the latest 10 day(s).
| Time | Temp. | Humidity | Pressure | Rain* | Wind** | Luminosity | Snow |
|---|---|---|---|---|---|---|---|
| 1777645613 | 21.67° C | 25% | 1026.5 hPa | 0 mm | - | - | - |
| 1777645313 | 21.67° C | 26% | 1026.5 hPa | 0 mm | - | - | - |
| 1777645023 | 21.67° C | 26% | 1026.6 hPa | 0 mm | - | - | - |
| 1777644713 | 21.11° C | 26% | 1026.5 hPa | 0 mm | - | - | - |
| 1777644413 | 21.67° C | 30% | 1026.5 hPa | 0 mm | - | - | - |
| 1777644113 | 21.11° C | 26% | 1026.7 hPa | - | - | - | - |
| 1777643813 | 21.67° C | 25% | 1026.6 hPa | 0 mm | - | - | - |
| 1777643513 | 21.11° C | 26% | 1026.7 hPa | 0 mm | - | - | - |
| 1777643213 | 21.67° C | 25% | 1026.9 hPa | 0 mm | - | - | - |
| 1777642913 | 21.67° C | 27% | 1026.9 hPa | 0 mm | - | - | - |
| 1777642613 | 21.67° C | 27% | 1026.9 hPa | 0 mm | - | - | - |
| 1777642313 | 21.11° C | 27% | 1026.9 hPa | 0 mm | - | - | - |
| 1777642013 | 20.56° C | 30% | 1026.9 hPa | 0 mm | - | - | - |
| 1777641713 | 20° C | 30% | 1027 hPa | 0 mm | - | - | - |
| 1777641412 | 20° C | 27% | 1027 hPa | 0 mm | - | - | - |
| 1777641113 | 20.56° C | 30% | 1027.1 hPa | 0 mm | - | - | - |
| 1777640813 | 20° C | 27% | 1027.3 hPa | 0 mm | - | - | - |
| 1777640513 | 20° C | 27% | 1027.4 hPa | - | - | - | - |
| 1777640213 | 20° C | 27% | 1027.6 hPa | 0 mm | - | - | - |
| 1777639913 | 21.11° C | 26% | 1027.4 hPa | 0 mm | - | - | - |
| 1777639313 | 20° C | 27% | 1027.4 hPa | 0 mm | - | - | - |
| 1777639013 | 20° C | 27% | 1027.6 hPa | 0 mm | - | - | - |
| 1777638713 | 20.56° C | 27% | 1027.7 hPa | 0 mm | - | - | - |
| 1777638412 | 20.56° C | 28% | 1027.7 hPa | 0 mm | - | - | - |
| 1777638113 | 20° C | 28% | 1027.7 hPa | 0 mm | - | - | - |
* Rain latest hour (hover to see other rain measurements)
** Current wind speed in m/s (hover to see current wind gust speed)